This is the latest recevied weather packets stored in our database for station/object WD7OO. If no packets are shown the sender has not sent any weather packets the latest 10 day(s).
| Time | Temp. | Humidity | Pressure | Rain* | Wind** | Luminosity | Snow |
|---|---|---|---|---|---|---|---|
| 1787782915 | 26.67° C | 68% | 1012.2 hPa | 0 mm | - | 168 W/m² | - |
| 1787782609 | 26.67° C | 69% | 1012.2 hPa | 0 mm | - | 183 W/m² | - |
| 1787782304 | 26.11° C | 67% | 1012.4 hPa | 0 mm | - | 200 W/m² | - |
| 1787782000 | 25.56° C | 75% | 1012.3 hPa | 0 mm | - | 225 W/m² | - |
| 1787781695 | 25.56° C | 69% | 1012.3 hPa | 0 mm | - | 122 W/m² | - |
| 1787781393 | 25.56° C | 72% | 1012.5 hPa | 0 mm | - | 110 W/m² | - |
| 1787781086 | 26.11° C | 70% | 1012.4 hPa | 0 mm | - | 268 W/m² | - |
| 1787780785 | 26.67° C | 65% | 1012.7 hPa | 0 mm | - | 110 W/m² | - |
| 1787780485 | 27.78° C | 64% | 1012.6 hPa | 0 mm | - | 276 W/m² | - |
| 1787780181 | 27.78° C | 63% | 1012.6 hPa | 0 mm | - | 294 W/m² | - |
| 1787779876 | 27.78° C | 64% | 1012.6 hPa | 0 mm | - | 346 W/m² | - |
| 1787779576 | 27.78° C | 66% | 1012.6 hPa | 0 mm | - | 343 W/m² | - |
| 1787779270 | 27.78° C | 64% | 1012.5 hPa | 0 mm | - | 380 W/m² | - |
| 1787778965 | 27.22° C | 65% | 1012.7 hPa | 0 mm | - | 405 W/m² | - |
| 1787778661 | 27.22° C | 65% | 1012.6 hPa | 0 mm | - | 405 W/m² | - |
| 1787778356 | 27.22° C | 67% | 1012.7 hPa | 0 mm | - | 392 W/m² | - |
| 1787778052 | 27.22° C | 66% | 1012.7 hPa | 0 mm | - | 389 W/m² | - |
| 1787777745 | 27.78° C | 65% | 1012.6 hPa | 0 mm | - | 421 W/m² | - |
| 1787777443 | 27.22° C | 67% | 1012.2 hPa | 0 mm | - | 428 W/m² | - |
| 1787777142 | 27.78° C | 65% | 1012.2 hPa | 0 mm | - | 452 W/m² | - |
| 1787776841 | 27.78° C | 65% | 1012.3 hPa | 0 mm | - | 460 W/m² | - |
* Rain latest hour (hover to see other rain measurements)
** Current wind speed in m/s (hover to see current wind gust speed)